Find Starlink 30924

NORAD ID: 58412 Int'l Des: 2023-180 Owner: SPXS Country: US Constellation: starlink operational
LEOCIRCULAR

当前视图

正在加载3D地球...

About Starlink 30924

Starlink 30924 (NORAD 58412) is a starlink constellation satellite (v2 mini) launched Nov 22, 2023 by SPXS of US. It operates in LEO, CIRCULAR orbit with a mass of 730.00 kg.

关于 Starlink 30924

正在加载描述...

即将过境

Passes for default location (London). Set your location on the main map for personalized predictions.

高度历史

Loading altitude history...

两行轨道根数

1 58412U 23180L 26193.50002315 .00114794 00000-0 16862-2 0 9992
2 58412 42.9937 265.7619 0018849 30.2247 328.5016 15.54184106 5959
Epoch: Jul 12, 2026 • Age: 4 hours

当前状态

高度 425.2 km
远地点 / 近地点 N/A
速度 7.65 km/s
星下点 -31.80°S, 45.55°W
发射日期 Nov 22, 2023
运行时间 2.6 years
类型 internet

技术详情

分类 Payload
质量 730.00 kg
干质量 700.00 kg
总质量 730.00 kg
长度 0.30 m
直径 4.10 m
跨度 29.00 m
形状 Box + pan
制造商 SPXS
平台类型 Starlink V2M
阶段状态 In Orbit
所有者/国家 SPXS/US

Most Searched